Location: La Brionne
(46.1728°N, 1.7849°E)
Time: 19:12:50
(UTC+00:00)

BREEZE-M DEB (TANK) - Visible Passes

Search period start: 21 October 2021 00:00
Search period end: 31 October 2021 00:00
Orbit: 316 x 12029 km, 49.7° (Epoch: 21 October)

Date Brightness Start Highest point End Pass type
(mag) Time Alt. Az. Time Alt. Az. Time Alt. Az.
21 Oct 7.1 01:41:24 10° SSW 02:43:30 51° SE 02:59:01 10° ENE visible
22 Oct 7.4 00:57:26 10° S 01:59:05 44° SE 02:16:29 10° ENE visible
22 Oct 5.3 05:33:50 10° WSW 06:11:03 83° NNW 06:18:39 10° ENE visible
23 Oct 7.6 00:15:33 10° S 01:14:34 37° SE 01:33:38 10° ENE visible
23 Oct 5.6 04:42:45 10° WSW 05:27:55 90° NNW 05:36:43 10° ENE visible
23 Oct 7.8 23:36:07 10° SSE 00:30:05 31° ESE 00:50:18 10° ENE visible
24 Oct 5.9 03:51:43 10° SW 04:44:34 83° SSE 04:54:45 10° ENE visible
24 Oct 7.9 22:59:41 10° SSE 23:45:47 24° ESE 00:06:09 10° ENE visible
25 Oct 6.2 03:01:28 10° SW 04:00:56 75° SSE 04:12:42 10° ENE visible
25 Oct 8.0 22:27:23 10° SE 23:01:49 18° ESE 23:20:25 10° E visible
26 Oct 6.5 02:12:31 10° SSW 03:17:02 67° SE 03:30:34 10° ENE visible
26 Oct 8.2 22:02:51 10° ESE 22:18:19 12° ESE 22:29:46 10° E visible
27 Oct 6.8 01:25:09 10° SSW 02:32:49 60° SE 02:48:19 10° ENE visible
28 Oct 7.1 00:39:35 10° SSW 01:48:20 53° SE 02:05:53 10° ENE visible
28 Oct 5.2 05:24:20 10° WSW 06:00:20 78° NNW 06:07:44 10° ENE visible
28 Oct 7.4 23:55:56 10° S 01:03:39 46° SE 01:23:14 10° ENE visible
29 Oct 5.5 04:36:52 13° WSW 05:17:06 83° NNW 05:25:45 10° ENE visible
29 Oct 7.7 23:14:23 10° S 00:18:55 39° SE 00:40:16 10° ENE visible
30 Oct 5.8 03:59:30 22° WSW 04:33:41 90° NNW 04:43:42 10° ENE visible
